Regional Weather Roundup
Issued by NWS Goodland, KS

Home | Current Version | Previous Version | Text Only | Print | Product List | Glossary Off
Versions: 1 2 3 4 5 6 7 8 9 10 11 12 13 14 15 16 17 18 19 20 21 22 23 24 25 26 27 28 29 30 31 32 33 34 35 36 37 38 39 40 41 42 43 44 45 46 47 48 49 50

781
ASUS43 KGLD 170008
RWRGLD

GOODLAND FORECAST AREA HOURLY WEATHER ROUNDUP
NATIONAL WEATHER SERVICE GOODLAND KS
500 PM MST TUE JAN 16 2018

...OFFICIAL OBSERVATIONS...

CITY           SKY/WX    TMP DP  RH WIND       PRES   REMARKS
GOODLAND KS    CLEAR     17  -1  45 S8        30.44F
HILL CITY KS   CLEAR     15   1  53 CALM      30.61F
IMPERIAL NEB   CLEAR     13  -1  54 S8        30.45F
MCCOOK NEB     CLEAR     13   2  61 S7        30.54F
AKRON CO       CLEAR     22   5  48 SE9       30.33F
BURLINGTON CO  CLEAR     19   1  45 S10       30.40F WCI   7
LIMON CO       CLEAR     22   2  42 S9        30.33S
$$

...UNOFFICIAL OBSERVATIONS...

CITY           SKY/WX    TMP DP  RH WIND       PRES   REMARKS
COLBY KS       CLEAR     18   3  53 SE6       30.51F
LENORA KS        N/A     13  32 100 CALM        N/A
NORTON KS      CLEAR      9  -2  61 S5        30.57
SHARON SPRINGS   N/A     19  -4  35 CALM        N/A
TRENTON NEB      N/A     11  32 100 S5          N/A
KIT CARSON CO    N/A     22   0  37 CALM        N/A
YUMA CO        FAIR      19   0  42 SE8       30.38F
$$




USA.gov is the U.S. government's official web portal to all federal, state and local government web resources and services.